This is the latest recevied weather packets stored in our database for station/object N1JOV-7. If no packets are shown the sender has not sent any weather packets the latest 10 day(s).
| Time | Temp. | Humidity | Pressure | Rain* | Wind** | Luminosity | Snow |
|---|---|---|---|---|---|---|---|
| 1787964662 | 21.11° C | 98% | 1015.9 hPa | 0 mm | - | - | - |
| 1787964062 | 21.11° C | 97% | 1015.8 hPa | 0 mm | - | - | - |
| 1787963462 | 21.11° C | 97% | 1015.6 hPa | 0 mm | - | - | - |
| 1787962861 | 20.56° C | 96% | 1015.5 hPa | 0 mm | - | - | - |
| 1787962261 | 20.56° C | 96% | 1014.8 hPa | 0 mm | - | - | - |
| 1787961661 | 21.11° C | 96% | 1014.7 hPa | 0 mm | - | - | - |
| 1787961063 | 21.11° C | 95% | 1014.5 hPa | 0 mm | - | - | - |
| 1787960461 | 21.11° C | 95% | 1014.4 hPa | 0 mm | - | - | - |
| 1787959861 | 21.67° C | 95% | 1014.4 hPa | 0 mm | - | - | - |
| 1787959261 | 21.67° C | 94% | 1014.4 hPa | 0 mm | - | - | - |
| 1787958662 | 22.22° C | 94% | 1014.4 hPa | 0 mm | - | - | - |
| 1787958062 | 22.22° C | 94% | 1014.5 hPa | 0 mm | - | - | - |
| 1787957462 | 22.22° C | 93% | 1014.2 hPa | 0 mm | - | - | - |
| 1787956862 | 23.33° C | 93% | 1014.2 hPa | 0 mm | - | - | - |
| 1787956262 | 23.33° C | 93% | 1014.2 hPa | 0.25 mm | - | - | - |
| 1787955661 | 23.33° C | 91% | 1014.4 hPa | 1.27 mm | - | - | - |
| 1787955061 | 24.44° C | 86% | 1014.8 hPa | 0 mm | - | - | - |
| 1787954461 | 24.44° C | 85% | 1014.6 hPa | 0 mm | - | - | - |
| 1787953861 | 24.44° C | 85% | 1014.9 hPa | 0 mm | - | - | - |
| 1787953261 | 25° C | 83% | 1014.7 hPa | 0 mm | - | - | - |
| 1787952661 | 25° C | 82% | 1014.8 hPa | 0 mm | - | - | - |
| 1787952062 | 25.56° C | 81% | 1014.7 hPa | 0 mm | - | - | - |
| 1787951462 | 25° C | 83% | 1014.6 hPa | 0 mm | - | - | - |
| 1787950862 | 24.44° C | 84% | 1014.5 hPa | 0 mm | - | - | - |
| 1787950262 | 25° C | 82% | 1014.4 hPa | 0 mm | - | - | - |
* Rain latest hour (hover to see other rain measurements)
** Current wind speed in m/s (hover to see current wind gust speed)